(92024) = 1999 VK169

Discovered at Socorro on 1999-11-14 by LINEAR.

Orbit

Orbit type: Main Belt

Note: WebGL enabled browser required.

epoch2024-03-31.0
epoch JD2460400.5
perihelion date2023-01-27.69225
perihelion JD2459972.19225
argument of perihelion (°)193.40217
ascending node (°)269.89219
inclination (°)4.16161
eccentricity0.1153104
perihelion distance (AU)2.8122163
Tisserand w.r.t. Jupiter3.2
ΔV w.r.t. Earth (km/sec)10.5
semimajor axis (AU)3.1787605
mean anomaly (°)74.48573
mean daily motion (°/day)0.17390700
aphelion distance (AU)3.545
period (years)5.67
P-vector [x]-0.22934276
P-vector [y]0.89958474
P-vector [z]0.37168428
Q-vector [x]-0.97063666
Q-vector [y]-0.18290247
Q-vector [z]-0.15624072
absolute magnitude14.89
phase slope0.15
uncertainty0
referenceMPEC 2024-F50
observations used820
oppositions17
arc length (days)11116
first opposition used1993
last opposition used2024
residual rms (arc-secs)0.68
perturbers coarse indicatorM-v
perturbers precise indicator003Ek
first observation date used1993-10-12.0
last observation date used2024-03-19.0
computer nameMPCLINUX
JD of orbit computation2456465.494643
perihelion JD uncertainty (days)1.9607E-04
argument of perihelion uncertainty (°)8.5885E-05
ascending node uncertainty (°)7.7390E-05
inclination uncertainty (°)5.2101E-06
eccentricity uncertainty 4.6287E-08
perihelion distance uncertainty (AU)1.3808E-07
Minimum Orbit Intersection Distances (in AU)
for orbit epoch: 2460400.5, reference: E2024-GB3
Mercury2.50007
Venus2.09399
Earth1.82977
Mars1.19865
Jupiter1.60169
Saturn6.212
Uranus15.3944
Neptune26.6367

Observations

830 total observations over interval: 1993 10 12.26424 – 2024 03 19.464501
These data are available for download (format description).

Date (UT) J2000 RA J2000 Dec Magn Location Ref
1993 10 12.26424 02 05 23.87 +18 36 32.8 18.6 V 691 – Steward Observatory, Kitt Peak-Spacewatch MPS 16633
1993 10 12.28327 02 05 23.01 +18 36 28.6   691 – Steward Observatory, Kitt Peak-Spacewatch MPS 16633
1993 10 12.30239 02 05 21.98 +18 36 22.9   691 – Steward Observatory, Kitt Peak-Spacewatch MPS 16633
1993 11 08.12062 01 44 53.98 +16 28 20.0   691 – Steward Observatory, Kitt Peak-Spacewatch MPS 16633
1993 11 08.16352 01 44 52.11 +16 28 06.7   691 – Steward Observatory, Kitt Peak-Spacewatch MPS 16633
1993 11 08.20401 01 44 50.31 +16 27 54.2 18.8 V 691 – Steward Observatory, Kitt Peak-Spacewatch MPS 16633
1999 11 03.39104 04 44 57.87 +25 18 42.2 18.9   704 – Lincoln Laboratory ETS, New Mexico MPS 14024
1999 11 03.40751 04 44 57.32 +25 18 40.2 19.3   704 – Lincoln Laboratory ETS, New Mexico MPS 14024
1999 11 03.42358 04 44 56.86 +25 18 38.0 19.4   704 – Lincoln Laboratory ETS, New Mexico MPS 14024
1999 11 14.36140 04 37 53.98 +24 57 44.8 19.0   704 – Lincoln Laboratory ETS, New Mexico MPS 10868
1999 11 14.37588 04 37 53.33 +24 57 43.2 19.4   704 – Lincoln Laboratory ETS, New Mexico MPS 10868
1999 11 14.39048 04 37 52.61 +24 57 40.8 19.1   704 – Lincoln Laboratory ETS, New Mexico MPS 10868
1999 11 14.40493 04 37 51.96 +24 57 38.8 19.4   704 – Lincoln Laboratory ETS, New Mexico MPS 10868
1999 11 14.41958 04 37 51.26 +24 57 36.8 19.2   704 – Lincoln Laboratory ETS, New Mexico MPS 10868
1999 11 16.28526 04 36 25.82 +24 53 06.5 18.7   704 – Lincoln Laboratory ETS, New Mexico MPS 10868
1999 11 16.29948 04 36 25.13 +24 53 04.7 19.5   704 – Lincoln Laboratory ETS, New Mexico MPS 10868
1999 11 16.31400 04 36 24.35 +24 53 03.8 19.2   704 – Lincoln Laboratory ETS, New Mexico MPS 10868
1999 11 16.32825 04 36 23.68 +24 53 00.7 20.0   704 – Lincoln Laboratory ETS, New Mexico MPS 10868
1999 11 16.34253 04 36 22.99 +24 52 58.6 19.2   704 – Lincoln Laboratory ETS, New Mexico MPS 10868
1999 12 05.24170 04 20 09.67 +23 54 37.6 18.8 R 703 – Catalina Sky Survey MPS 14024
1999 12 05.25401 04 20 08.92 +23 54 33.9 18.4 R 703 – Catalina Sky Survey MPS 14024
1999 12 05.26637 04 20 08.25 +23 54 32.4 18.7 R 703 – Catalina Sky Survey MPS 14024
1999 12 05.27869 04 20 07.64 +23 54 28.5 18.8 R 703 – Catalina Sky Survey MPS 14024
1999 12 07.22689 04 18 26.37 +23 47 29.3 18.4   704 – Lincoln Laboratory ETS, New Mexico MPS 14024
1999 12 07.24146 04 18 25.59 +23 47 26.3 19.0   704 – Lincoln Laboratory ETS, New Mexico MPS 14024
1999 12 07.25603 04 18 24.79 +23 47 23.6 19.1   704 – Lincoln Laboratory ETS, New Mexico MPS 14024
1999 12 07.27060 04 18 24.00 +23 47 20.8 18.8   704 – Lincoln Laboratory ETS, New Mexico MPS 14024
1999 12 07.28512 04 18 23.20 +23 47 17.4 18.8   704 – Lincoln Laboratory ETS, New Mexico MPS 14024
2000 01 04.16668 04 00 44.03 +22 12 52.3 18.8   704 – Lincoln Laboratory ETS, New Mexico MPS 14024
2000 01 04.18126 04 00 43.71 +22 12 51.0 19.4   704 – Lincoln Laboratory ETS, New Mexico MPS 14024
2000 01 04.19588 04 00 43.47 +22 12 48.9 19.6   704 – Lincoln Laboratory ETS, New Mexico MPS 14024
2000 01 04.21049 04 00 43.14 +22 12 45.6 19.4   704 – Lincoln Laboratory ETS, New Mexico MPS 14024
2001 03 18.28696 10 59 52.93 -00 12 14.7 18.7 R 699 – Lowell Observatory-LONEOS MPS 27672
2001 03 18.32749 10 59 51.15 -00 12 04.3   699 – Lowell Observatory-LONEOS MPS 27672
2001 03 18.36811 10 59 49.33 -00 11 52.8   699 – Lowell Observatory-LONEOS MPS 27672
2001 03 18.40881 10 59 47.65 -00 11 40.9   699 – Lowell Observatory-LONEOS MPS 27672
2001 03 21.30147 10 57 48.54 +00 01 56.2 19.9   608 – Haleakala-AMOS MPS 27672
2001 03 21.31287 10 57 48.05 +00 01 59.0 20.0   608 – Haleakala-AMOS MPS 27672
2001 03 21.32331 10 57 47.60 +00 02 02.0 19.8   608 – Haleakala-AMOS MPS 27672
2004 09 08.36609 00 32 02.39 +09 59 29.7 19.0   644 – Palomar Mountain/NEAT MPS 112528
2004 09 08.38801 00 32 01.57 +09 59 26.2 19.0   644 – Palomar Mountain/NEAT MPS 112528
2004 09 08.41012 00 32 00.79 +09 59 22.7 19.1   644 – Palomar Mountain/NEAT MPS 112528
2004 09 10.30292 00 30 52.81 +09 54 00.7 20.1   704 – Lincoln Laboratory ETS, New Mexico MPS 112556
2004 09 10.31438 00 30 52.38 +09 53 57.8 19.9   704 – Lincoln Laboratory ETS, New Mexico MPS 112556
2004 09 10.32585 00 30 51.96 +09 53 56.1 20.1   704 – Lincoln Laboratory ETS, New Mexico MPS 112556
2004 09 10.33741 00 30 51.53 +09 53 52.5 20.3   704 – Lincoln Laboratory ETS, New Mexico MPS 112556
2004 09 11.34087 00 30 14.20 +09 50 53.0 19.0   644 – Palomar Mountain/NEAT MPS 112556
2004 09 11.40419 00 30 11.74 +09 50 41.2 18.8   644 – Palomar Mountain/NEAT MPS 112556
2004 09 11.48708 00 30 08.51 +09 50 25.6 18.9   644 – Palomar Mountain/NEAT MPS 112556
2004 09 13.23668 00 29 01.75 +09 44 47.4 19.1   704 – Lincoln Laboratory ETS, New Mexico MPS 112556
2004 09 13.24822 00 29 01.29 +09 44 45.4 19.1   704 – Lincoln Laboratory ETS, New Mexico MPS 112556
2004 09 13.25978 00 29 00.82 +09 44 42.5 19.3   704 – Lincoln Laboratory ETS, New Mexico MPS 112556
2004 09 13.27132 00 29 00.38 +09 44 41.2 19.7   704 – Lincoln Laboratory ETS, New Mexico MPS 112556
2004 09 13.28287 00 28 59.93 +09 44 38.6 19.7   704 – Lincoln Laboratory ETS, New Mexico MPS 112556
2004 09 18.30496 00 25 36.26 +09 26 23.6 19.7   704 – Lincoln Laboratory ETS, New Mexico MPS 114091
2004 09 18.31756 00 25 35.87 +09 26 21.3 20.5   704 – Lincoln Laboratory ETS, New Mexico MPS 114091
2004 09 18.33005 00 25 35.22 +09 26 18.2 20.0   704 – Lincoln Laboratory ETS, New Mexico MPS 114091
2004 09 18.34261 00 25 34.65 +09 26 15.6 20.0   704 – Lincoln Laboratory ETS, New Mexico MPS 114091
2004 09 18.35503 00 25 34.12 +09 26 11.9 20.0   704 – Lincoln Laboratory ETS, New Mexico MPS 114091
2004 09 22.28545 00 22 46.23 +09 09 58.8 19.5   704 – Lincoln Laboratory ETS, New Mexico MPS 114091
2004 09 22.29762 00 22 45.60 +09 09 55.4 19.6   704 – Lincoln Laboratory ETS, New Mexico MPS 114091
2004 09 22.32189 00 22 44.52 +09 09 49.7 20.0   704 – Lincoln Laboratory ETS, New Mexico MPS 114091
2004 09 22.33404 00 22 44.02 +09 09 45.9 19.9   704 – Lincoln Laboratory ETS, New Mexico MPS 114091
2004 09 24.28632 00 21 18.67 +09 01 09.6   704 – Lincoln Laboratory ETS, New Mexico MPS 406617
2004 09 24.29855 00 21 18.06 +09 01 06.3   704 – Lincoln Laboratory ETS, New Mexico MPS 406617
2004 09 24.31073 00 21 17.53 +09 01 02.9   704 – Lincoln Laboratory ETS, New Mexico MPS 406617
2004 10 05.22244 00 13 15.14 +08 08 08.6 18.9 R 699 – Lowell Observatory-LONEOS MPS 115567
2004 10 05.24271 00 13 14.22 +08 08 02.4   699 – Lowell Observatory-LONEOS MPS 115567
2004 10 05.26299 00 13 13.34 +08 07 56.9   699 – Lowell Observatory-LONEOS MPS 115567
2004 10 05.28328 00 13 12.49 +08 07 49.2   699 – Lowell Observatory-LONEOS MPS 115567
2004 10 10.20140 00 09 42.89 +07 42 25.7 19.3   704 – Lincoln Laboratory ETS, New Mexico MPS 116361
2004 10 10.21243 00 09 42.39 +07 42 23.2 19.5   704 – Lincoln Laboratory ETS, New Mexico MPS 116361
2004 10 10.22404 00 09 41.94 +07 42 19.2 19.7   704 – Lincoln Laboratory ETS, New Mexico MPS 116361
2004 10 10.23494 00 09 41.38 +07 42 16.0 19.2   704 – Lincoln Laboratory ETS, New Mexico MPS 116361
2004 10 10.24692 00 09 40.90 +07 42 12.5 19.6   704 – Lincoln Laboratory ETS, New Mexico MPS 116361
2004 10 21.20473 00 02 47.03 +06 46 29.4 19.5   704 – Lincoln Laboratory ETS, New Mexico MPS 117444
2004 10 21.21662 00 02 46.61 +06 46 26.0 20.2   704 – Lincoln Laboratory ETS, New Mexico MPS 117444
2004 10 21.21737 00 02 46.59 +06 46 24.8 19.6   704 – Lincoln Laboratory ETS, New Mexico MPS 117444
2004 10 21.22848 00 02 46.16 +06 46 21.5 20.2   704 – Lincoln Laboratory ETS, New Mexico MPS 117444
2004 10 21.22922 00 02 46.11 +06 46 21.6 20.0   704 – Lincoln Laboratory ETS, New Mexico MPS 117444
2004 10 21.25220 00 02 45.45 +06 46 14.4 20.2   704 – Lincoln Laboratory ETS, New Mexico MPS 117444
2004 10 21.25294 00 02 45.33 +06 46 14.9 20.0   704 – Lincoln Laboratory ETS, New Mexico MPS 117444
2005 11 28.38242 07 24 38.70 +21 32 42.3 19.3 V G96 – Mt. Lemmon Survey MPS 153200
2005 11 28.38963 07 24 38.55 +21 32 41.9 19.2 V G96 – Mt. Lemmon Survey MPS 153200
2005 11 28.39701 07 24 38.44 +21 32 41.5 19.2 V G96 – Mt. Lemmon Survey MPS 153200
2005 11 28.40463 07 24 38.30 +21 32 41.1 19.1 V G96 – Mt. Lemmon Survey MPS 153200
